Погода в Чигораке

Россия / Воронежская область     51°25′43″N   42°09′43″E
темп.,
°C
ветер,
м/с
пор.,
м/с
влажн.,
%
обл.,
%
осадки,
мм/ч
давл.,
гПа
погр.,
м
23 октября, сб
сб2300:00+11зюз5116612 0.0 1012295
03:00+9юз4975100 0.0 1012152
06:00+8зюз4117796 0.0 1012215
09:00+11юз51158100 0.0 1014500
12:00+14з5747100 0.0 1014960
15:00+14ю3550100 0.0 1012875
18:00+11ю357499 0.1 101194
21:00+9сз510765 0.3 1013312
24 октября, вс
вс2400:00+7з410755 0.0 1015283
03:00+5з410762 0.0 1016282
06:00+3з49855 0.0 1017239
09:00+5з586910 0.0 1018499
12:00+9з684937 0.0 10181442
15:00+10з684280 0.0 10171823
18:00+8зсз4850100 0.0 1018497
21:00+6з596299 0.1 1018523
25 октября, пн
пн2500:00+4сз598397 0.1 1019746
03:00+4ссз71065100 0.1 10201178
06:00+2ссз710665 0.0 10231067
09:00+1ссз796554 0.0 1026802
12:00+4с684820 0.0 10271167
15:00+5с67415 0.0 10281299
18:00+2ссз3651100 0.0 1030125
21:00+1ссз235659 0.0 103246
26 октября, вт
вт2600:000сз225914 0.0 103311
03:00−1з22610 0.0 103326
06:00−2зюз34625 0.0 103360
09:00+1зюз4651100 0.0 1033260
12:00+6зюз563978 0.0 1032710
15:00+7зюз5735100 0.0 1030802
18:00+3юз374637 0.0 103099
21:00+2юз485014 0.0 1030144
27 октября, ср
ср2700:00+1юз495035 0.0 1029150
03:000юз49515 0.0 1029161
06:000юз495351 0.0 1028154
09:00+3юз59415 0.0 1028282
12:00+8юз69275 0.0 1026694
15:00+10юз69255 0.0 1024893
18:00+5юз49360 0.0 1023162
21:00+3юз412390 0.0 1022224